Heat Index SAI AWOS Graphical Display Untitled Document
Bertrand Chaffee Hospital Heliport (2NK6) Springville, New York, USA
280
09:54
24/04/2014
00
N/A
N/A
30.07
N/A
1420
28(F), -2(C)
24(F), -4(C)
28 F
84%
CLR
10
N/A
0"
N/A
09:54 zulu Wind Calm, Altimeter 30.07
METAR K2NK6 240954Z AUTO 00000KT 10SM CLR M02/M04 A3007 A02 P0000
METAR:
FAA Disclaimer--Advisory Use ONLY, not for flight info-- AWOS status update. Wind sensors that were lightning damaged have been returned to MFG for repair. Loaner wind sensors installed . New lightning sensor installed reporting out to 50 miles .rainfall daily totals http://www.saiawos3.com/2NK6/pcpn.php wjs
INFO:
Wind Direction:
Wind Speed:
Wind Gust:
Wind Variable:
Altimeter:
Dens Alt:
Elev:
Temp:
Dwpt:
Wind Chill
Rel Humidity:
Ceiling:
Visibility:
Prsnt Wea:
PCPN:
Remarks:
How to read the WebPage